Powrót do katalogu

STARLINK-35294

AktywnyŁącznośćVLEO
NORAD 65755·PAYLOAD·🇺🇸 United States

Wystrzelony Sep 25, 2025 z Cape Canaveral Space Force Station

Loading…

Następne Przeloty (najbliższe 24 godziny)

TLE

ŚwieżeSource: CelesTrak SupGP

Epoka: Sep 14, 2026, 23:01 UTC

1 65755C 25216X   26257.95951389 -.00070164  00000+0 -20721-2 0  2575
2 65755  53.1571 171.6830 0001246  97.7918 160.1407 15.34439975    12

Śledź STARLINK-35294 w czasie rzeczywistym z AllMySat

Download on the App Store